When you browse on this site, cookies collect data to enhance your experience and personalize the content and advertising you see.
Visit our Privacy Policy to learn more. By continuing to use the site, you agree to this use of cookies and data.
  • In Romania
  • List of Countries
  • For 7 days
  • Water Temperature
  • Satellite Maps
  • Weather Map
  • Weather Widgets
  • user-avatar
    Login

    Hourly Weather Aspach

    Today, 22 April, Monday

    Time Temperature Precipitation Wind Pressure Humidity
    00:00 +12°C° 0 mm 2 mps 731 mmHg 60%
    01:00 +12°C° 0 mm 2 mps 731 mmHg 55%
    02:00 +12°C° 0 mm 2 mps 730 mmHg 58%
    03:00 +10°C° 0 mm 2 mps 730 mmHg 60%
    04:00 +9°C° 0 mm 2 mps 730 mmHg 62%
    05:00 +10°C° 0 mm 2 mps 729 mmHg 63%
    06:00 +10°C° 0 mm 2 mps 729 mmHg 63%
    07:00 +11°C° 0 mm 3 mps 729 mmHg 61%
    08:00 +14°C° 0 mm 3 mps 728 mmHg 55%
    09:00 +17°C° 0 mm 4 mps 728 mmHg 50%
    10:00 +19°C° 0 mm 5 mps 728 mmHg 45%
    11:00 +20°C° 0 mm 5 mps 727 mmHg 43%
    12:00 +21°C° 0 mm 5 mps 727 mmHg 40%
    13:00 +23°C° 0 mm 5 mps 726 mmHg 39%
    14:00 +23°C° 0 mm 5 mps 726 mmHg 39%
    15:00 +23°C° 0 mm 5 mps 725 mmHg 39%
    16:00 +23°C° 0 mm 5 mps 724 mmHg 40%
    17:00 +21°C° 0 mm 4 mps 724 mmHg 46%
    18:00 +19°C° 0 mm 4 mps 724 mmHg 52%
    19:00 +17°C° 0 mm 4 mps 723 mmHg 57%
    20:00 +17°C° 0 mm 4 mps 723 mmHg 58%
    21:00 +15°C° 0 mm 5 mps 723 mmHg 58%
    22:00 +14°C° 0 mm 5 mps 723 mmHg 58%
    23:00 +13°C° 0 mm 5 mps 723 mmHg 62%

    Tomorrow, 23 April, Tuesday

    Time Temperature Precipitation Wind Pressure Humidity
    00:00 +12°C° 0 mm 4 mps 722 mmHg 67%
    01:00 +11°C° 0 mm 4 mps 722 mmHg 71%
    02:00 +11°C° 0 mm 4 mps 722 mmHg 75%
    03:00 +10°C° 0 mm 3 mps 721 mmHg 79%
    04:00 +10°C° 0 mm 3 mps 721 mmHg 83%
    05:00 +10°C° 0 mm 3 mps 721 mmHg 82%
    06:00 +10°C° 0 mm 3 mps 721 mmHg 82%
    07:00 +11°C° 0 mm 4 mps 721 mmHg 81%
    08:00 +12°C° 0 mm 4 mps 721 mmHg 75%
    09:00 +14°C° 0 mm 4 mps 720 mmHg 69%
    10:00 +17°C° 0 mm 4 mps 720 mmHg 63%
    11:00 +18°C° 0 mm 3 mps 720 mmHg 59%
    12:00 +19°C° 0 mm 3 mps 720 mmHg 55%
    13:00 +21°C° 0 mm 3 mps 719 mmHg 51%
    14:00 +21°C° 0 mm 3 mps 719 mmHg 50%
    15:00 +21°C° 0 mm 2 mps 719 mmHg 50%
    16:00 +23°C° 0 mm 2 mps 718 mmHg 49%
    17:00 +20°C° 0.1 mm 2 mps 718 mmHg 56%
    18:00 +19°C° 0.1 mm 2 mps 718 mmHg 64%
    19:00 +17°C° 0.1 mm 2 mps 718 mmHg 71%
    20:00 +16°C° 0 mm 2 mps 719 mmHg 74%
    21:00 +15°C° 0 mm 2 mps 719 mmHg 77%
    22:00 +14°C° 0 mm 2 mps 719 mmHg 80%
    23:00 +14°C° 0 mm 2 mps 720 mmHg 80%

    Day after tomorrow, 24 April, Wednesday

    Time Temperature Precipitation Wind Pressure Humidity
    00:00 +14°C° 0 mm 2 mps 721 mmHg 80%
    01:00 +14°C° 0 mm 1 mps 721 mmHg 81%
    02:00 +14°C° 0 mm 1 mps 722 mmHg 81%
    03:00 +14°C° 0 mm 1 mps 722 mmHg 81%
    04:00 +14°C° 0 mm 1 mps 722 mmHg 82%
    05:00 +14°C° 0.2 mm 1 mps 723 mmHg 82%
    06:00 +15°C° 0.2 mm 1 mps 723 mmHg 81%
    07:00 +15°C° 0.2 mm 1 mps 724 mmHg 81%
    08:00 +18°C° 0.1 mm 1 mps 724 mmHg 75%
    09:00 +19°C° 0.1 mm 1 mps 725 mmHg 69%
    10:00 +20°C° 0.1 mm 2 mps 725 mmHg 63%
    11:00 +20°C° 0.2 mm 3 mps 725 mmHg 60%
    12:00 +21°C° 0.2 mm 3 mps 725 mmHg 57%
    13:00 +22°C° 0.2 mm 4 mps 725 mmHg 54%
    14:00 +23°C° 0 mm 4 mps 724 mmHg 52%
    15:00 +23°C° 0 mm 4 mps 724 mmHg 50%
    16:00 +25°C° 0 mm 4 mps 724 mmHg 47%
    17:00 +20°C° 0.5 mm 6 mps 724 mmHg 58%
    18:00 +15°C° 0.5 mm 8 mps 725 mmHg 70%
    19:00 +11°C° 0.5 mm 9 mps 725 mmHg 81%
    20:00 +10°C° 0.1 mm 7 mps 726 mmHg 81%
    21:00 +10°C° 0.1 mm 4 mps 728 mmHg 82%
    22:00 +10°C° 0.1 mm 2 mps 729 mmHg 82%
    23:00 +9°C° 0 mm 2 mps 729 mmHg 83%

    25 April, Thursday

    Time Temperature Precipitation Wind Pressure Humidity
    00:00 +9°C° 0 mm 2 mps 729 mmHg 84%
    01:00 +8°C° 0 mm 2 mps 729 mmHg 86%
    02:00 +8°C° 0 mm 2 mps 729 mmHg 87%
    03:00 +8°C° 0 mm 2 mps 729 mmHg 87%
    04:00 +8°C° 0 mm 2 mps 729 mmHg 88%
    05:00 +8°C° 0 mm 3 mps 729 mmHg 85%
    06:00 +9°C° 0 mm 3 mps 729 mmHg 81%
    07:00 +10°C° 0 mm 3 mps 729 mmHg 77%
    08:00 +13°C° 0 mm 4 mps 729 mmHg 69%
    09:00 +15°C° 0 mm 4 mps 729 mmHg 61%
    10:00 +19°C° 0 mm 4 mps 729 mmHg 53%
    11:00 +20°C° 0 mm 3 mps 729 mmHg 48%
    12:00 +21°C° 0 mm 3 mps 729 mmHg 44%
    13:00 +24°C° 0 mm 2 mps 729 mmHg 39%
    14:00 +24°C° 0 mm 1 mps 729 mmHg 40%
    15:00 +24°C° 0 mm 1 mps 729 mmHg 41%
    16:00 +24°C° 0 mm 1 mps 728 mmHg 41%
    17:00 +23°C° 0 mm 1 mps 728 mmHg 49%
    18:00 +21°C° 0 mm 1 mps 727 mmHg 57%
    19:00 +19°C° 0 mm 2 mps 727 mmHg 65%
    20:00 +18°C° 0 mm 2 mps 727 mmHg 66%
    21:00 +17°C° 0 mm 2 mps 728 mmHg 68%
    22:00 +16°C° 0 mm 2 mps 728 mmHg 69%
    23:00 +15°C° 0 mm 2 mps 728 mmHg 73%

    26 April, Friday

    Time Temperature Precipitation Wind Pressure Humidity
    00:00 +13°C° 0 mm 2 mps 729 mmHg 77%
    01:00 +11°C° 0 mm 3 mps 729 mmHg 81%
    02:00 +10°C° 0 mm 2 mps 729 mmHg 85%
    03:00 +10°C° 0 mm 2 mps 729 mmHg 89%
    04:00 +9°C° 0 mm 2 mps 729 mmHg 93%
    05:00 +9°C° 0 mm 3 mps 730 mmHg 89%
    06:00 +8°C° 0 mm 5 mps 730 mmHg 85%
    07:00 +7°C° 0 mm 6 mps 731 mmHg 81%
    08:00 +7°C° 0.3 mm 5 mps 731 mmHg 83%
    09:00 +7°C° 0.3 mm 4 mps 732 mmHg 84%
    10:00 +7°C° 0.3 mm 4 mps 733 mmHg 86%
    11:00 +7°C° 1.2 mm 4 mps 733 mmHg 86%
    12:00 +7°C° 1.2 mm 4 mps 734 mmHg 87%
    13:00 +7°C° 1.2 mm 4 mps 735 mmHg 87%
    14:00 +8°C° 0.2 mm 4 mps 735 mmHg 84%
    15:00 +10°C° 0.2 mm 3 mps 735 mmHg 80%
    16:00 +10°C° 0.2 mm 3 mps 735 mmHg 76%
    17:00 +10°C° 0 mm 2 mps 735 mmHg 75%
    18:00 +10°C° 0 mm 2 mps 735 mmHg 74%
    19:00 +10°C° 0 mm 2 mps 735 mmHg 73%
    20:00 +9°C° 0 mm 2 mps 736 mmHg 75%
    21:00 +9°C° 0 mm 2 mps 736 mmHg 76%
    22:00 +8°C° 0 mm 3 mps 736 mmHg 77%
    23:00 +8°C° 0 mm 3 mps 736 mmHg 79%

    27 April, Saturday

    Time Temperature Precipitation Wind Pressure Humidity
    00:00 +8°C° 0 mm 3 mps 736 mmHg 80%
    01:00 +8°C° 0 mm 3 mps 736 mmHg 81%
    02:00 +8°C° 0.1 mm 3 mps 736 mmHg 83%
    03:00 +8°C° 0.1 mm 3 mps 736 mmHg 85%
    04:00 +8°C° 0.1 mm 3 mps 736 mmHg 87%
    05:00 +7°C° 0.2 mm 4 mps 736 mmHg 87%
    06:00 +7°C° 0.2 mm 4 mps 736 mmHg 88%
    07:00 +8°C° 0.2 mm 4 mps 737 mmHg 89%
    08:00 +8°C° 0.1 mm 5 mps 737 mmHg 82%
    09:00 +8°C° 0.1 mm 5 mps 737 mmHg 76%
    10:00 +8°C° 0.1 mm 6 mps 737 mmHg 69%
    11:00 +9°C° 0 mm 6 mps 737 mmHg 63%
    12:00 +10°C° 0 mm 6 mps 737 mmHg 57%
    13:00 +13°C° 0 mm 6 mps 737 mmHg 51%
    14:00 +11°C° 0.1 mm 6 mps 736 mmHg 58%
    15:00 +10°C° 0.1 mm 5 mps 736 mmHg 64%
    16:00 +10°C° 0.1 mm 5 mps 735 mmHg 71%
    17:00 +9°C° 0.2 mm 5 mps 735 mmHg 74%
    18:00 +9°C° 0.2 mm 5 mps 735 mmHg 77%
    19:00 +9°C° 0.2 mm 5 mps 734 mmHg 80%
    20:00 +7°C° 0.9 mm 5 mps 734 mmHg 81%
    21:00 +6°C° 0.9 mm 4 mps 735 mmHg 82%
    22:00 +5°C° 0.9 mm 4 mps 735 mmHg 83%
    23:00 +5°C° 0 mm 5 mps 735 mmHg 85%
    Show more